Location: Praha
(50.0830°N, 14.4670°E)
Time: 09:11:15
(UTC+02:00)

ISS - Pass Details

Date: 30 April 2025
Orbit: 416 x 419 km, 51.6° (Epoch: 18 May)

Event Time Altitude Azimuth Distance (km) Brightness Sun altitude
Exits shadow 04:33:16 - 274° (W) 1,601 -1.2 -10.0°
Reaches altitude 10° 04:33:32 10° 274° (W) 1,495 -1.4 -9.9°
Maximum altitude 04:36:52 65° 357° (N) 464 -3.4 -9.5°
Drops below altitude 10° 04:40:13 10° 81° (E) 1,497 0.2 -9.1°
Sets 04:42:19 0° 84° (E) 2,362 1.2 -8.8°
